weather.gov     
National Weather Service

Regional Weather Roundup
NWS Homepage
This page is being discontinued on March 12, 2014.
The same data is available at this site. Please update your bookmarks.
Thank you, and we apologize for the inconvenience.
Please send an email to SR-SRH.Webmaster@noaa.gov with any concerns.


Current Version
Previous Version:    01  02  03  04  05  06  07  08  09  10  11  12  13  14  15  16  17  18  19  20  21  22  23  24  25  26  
[Printable]
858
ASUS42 KTBW 220510
RWRFL
FLORIDA REGIONAL WEATHER ROUNDUP
NATIONAL WEATHER SERVICE TAMPA BAY RUSKIN FL
100 AM EDT FRI AUG 22 2014

NOTE: "FAIR" INDICATES FEW OR NO CLOUDS BELOW 12,000 FEET WITH NO
SIGNIFICANT WEATHER AND/OR OBSTRUCTIONS TO VISIBILITY.


FLZ001>010-012>015-112-114-115-220600-
PANHANDLE FLORIDA

CITY           SKY/WX    TMP DP  RH WIND       PRES   REMARKS
PENSACOLA      CLEAR     81  74  79 W3        30.10F
PENSACOLA NAS  CLEAR     79  75  87 CALM      30.10S
MILTON NAS     CLEAR     78  73  84 CALM      30.10F
CRESTVIEW      PTCLDY    81  76  84 CALM      30.11F
DUKE FIELD     PTCLDY    81  78  90 SW3       30.10F
VALPARAISO     PTCLDY    81  76  83 W2        30.10F
MARY ESTHER    CLEAR     83  71  66 NW5       30.09F
TRI COUNTY     FAIR      78  75  90 CALM      30.11F
PANAMA CITY    FAIR      79  76  90 CALM      30.10F
TYNDALL AFB    CLEAR     80  77  90 N1        30.11F
APALACHICOLA   CLEAR     81  76  84 CALM      30.10F

STATION/POSITION SKY/WX   TEMP    WIND        PRES    WAVE   SWELL
                          AIR SEA DIR/SP/G            HT/PER HT/PER
                          (F)     (DEG/KT/KT) (MB)    (FT/S) (FT/S)
30.1N   87.6W              85 86  250/  8/  8 1019.4F   1/ 3
29.2N   88.2W              86 89  200/  4/  6 1019.8
28.8N   86.0W              85 89  290/  4/  6 1019.5F   1/ 8   2/ 8
PANAMA CITY BEAC           83 84  350/  5/  7 1019.3F
CAPE SAN BLAS    NOT AVBL
TOWER C                    84     320/  8/ 10 1019.3F
28.5N   84.5W              85 87  320/  8/ 10 1019.1F   1

$$
FLZ011-016>038-118-127-128-134-139-239-220600-
NORTH FLORIDA

CITY           SKY/WX    TMP DP  RH WIND       PRES   REMARKS
MARIANNA       PTCLDY    78  76  93 CALM      30.10S
TALLAHASSEE    PTCLDY    80  73  79 SW5       30.10F
PERRY          PTCLDY    72  70  94 CALM      30.10F
CROSS CITY       N/A     77  72  84 CALM      30.09F
GAINESVILLE    CLOUDY    75  73  93 CALM      30.09F
MAYPORT NAS    PTCLDY    80  73  79 W6        30.07F
JACKSONVILLE   PTCLDY    77  73  87 SW5       30.07F
JAX NAS        PTCLDY    82  70  66 S3        30.08F
JAX CRAIG      PTCLDY    80  71  74 CALM      30.08F
JAX CECIL      MOCLDY    75  72  88 CALM      30.09F
FERNANDINA BEA FAIR      81  72  74 SW7       30.06F
ST AUGUSTINE   PTCLDY   N/A N/A N/A SW5       30.08F

STATION/POSITION SKY/WX   TEMP    WIND        PRES    WAVE   SWELL
                          AIR SEA DIR/SP/G            HT/PER HT/PER
                          (F)     (DEG/KT/KT) (MB)    (FT/S) (FT/S)
SHELL POINT                85     190/  7/ 11   N/A
KEATON BEACH               84     230/  5/  6 1019.1F
CEDAR KEY                  81     330/  3/  4 1019.2F
FERNANDINA                 81 85  230/  6/  7 1017.9F
30.7N   81.3W                 83                N/A     2/ 3
MAYPORT                    80 83  260/  6/  8   N/A
31.4N   80.9W              85 85  200/ 14/ 16 1017.8F   2/ 3
ST AUGUSTINE               77     230/  5/  5 1019.2F

$$
FLZ040-043>046-052-053-057-058-063-144-220600-
INTERIOR CENTRAL FLORIDA

CITY           SKY/WX    TMP DP  RH WIND       PRES   REMARKS
OCALA          CLOUDY    73  72  94 N5        30.09F
LEESBURG       CLOUDY    82  74  76 S3        30.10F
SANFORD        PTCLDY    75  73  93 W3        30.09F
ORLANDO EXEC   PTCLDY    80  73  79 SW3       30.10S
ORLANDO INTL   MOCLDY    78  74  87 SE3       30.11S
WINTER HAVEN   CLOUDY    78  72  81 S5        30.12F
LAKELAND       CLOUDY    77  77 100 S3        30.12F
BARTOW         FAIR      77  73  88 SW3       30.13S
OKEECHOBEE       N/A     77  75  94 MISG      30.12S

$$
FLZ041-047-054-059-064-141-147-220600-
EAST CENTRAL FLORIDA

CITY           SKY/WX    TMP DP  RH WIND       PRES   REMARKS
DAYTONA BEACH  PTCLDY    75  72  90 CALM      30.09F
DELAND         MOCLDY    75  72  88 S3        30.10F
JFK SPACE CTR  CLEAR     77 N/A N/A S3        30.09F
CAPE CANAVERAL CLEAR     79  75  89 VRB5      30.09F
PATRICK AFB    PTCLDY    82  77  87 SW2       30.10F
MELBOURNE      PTCLDY    79  76  90 CALM      30.10F
VERO BEACH     CLEAR     79  76  90 S5        30.10F
FT PIERCE      CLEAR     77  74  90 CALM      30.10F
STUART           N/A     79  75  89 CALM      30.12S

STATION/POSITION SKY/WX   TEMP    WIND        PRES    WAVE   SWELL
                          AIR SEA DIR/SP/G            HT/PER HT/PER
                          (F)     (DEG/KT/KT) (MB)    (FT/S) (FT/S)
28.5N   80.2W              85 85  190/  8/ 10 1019.8F
28.9N   78.5W              84 86  190/  8/ 10 1019.4F   1/ 7   2/ 7
TRIDENT PIER               82 84   CALM  /  3 1019.0S
28.4N   80.5W                 81                N/A     1/ 3
27.6N   80.2W                 83                N/A     1

$$
FLZ050-056-061-142-242-148-248-149-249-151-251-155-255-
160-260-220600-
WEST CENTRAL FLORIDA

CITY           SKY/WX    TMP DP  RH WIND       PRES   REMARKS
CRYSTAL RIVER  FAIR      75  72  88 CALM      30.09S
INVERNESS      FAIR      73  70  88 CALM      30.10S
BROOKSVILLE    MOCLDY    76  72  87 CALM      30.10F
ZEPHYRHILLS    FAIR      73  72  94 SW3       30.11F
CLEARWATER     PTCLDY    83  75  77 NE5       30.10F
TAMPA INTL     MOCLDY    83  71  67 CALM      30.10F
TAMPA EXEC     CLOUDY    79  73  83 SE3       30.11F
MACDILL AFB    MOCLDY    78  76  92 SE7       30.10F
ST PETERSBURG  PTCLDY    84  76  76 SE10      30.09F
SARASOTA       PTCLDY    80  72  76 SE3       30.10F
VENICE           N/A    N/A N/A N/A MISG        N/A

STATION/POSITION SKY/WX   TEMP    WIND        PRES    WAVE   SWELL
                          AIR SEA DIR/SP/G            HT/PER HT/PER
                          (F)     (DEG/KT/KT) (MB)    (FT/S) (FT/S)
CEDAR KEY                  81     330/  3/  4 1019.2F
28.5N   84.5W              85 87  320/  8/ 10 1019.1F   1
27.3N   84.3W                 88                N/A     1/ 8
CLEARWATER BEACH           85 90   70/  4/  5 1019.0F
MIDDLE TAMPA BAY           80     140/  7/ 10 1020.0F
VENICE                     78 89   60/  4/  5 1019.2F

$$
FLZ066-069-070-075>078-162-262-165-265-220600-
SOUTHWEST FLORIDA AND KEYS

CITY           SKY/WX    TMP DP  RH WIND       PRES   REMARKS
PUNTA GORDA    PTCLDY    79  75  87 E3        30.12F
FT MYERS       CLEAR     81  74  79 CALM      30.10F
SOUTHWEST INTL CLEAR     79  73  82 CALM      30.11F
MARCO ISLAND   MOCLDY    77  73  88 NE5       30.11F
MARATHON       PTCLDY    86  75  69 NE3       30.09F HX  95
KEY WEST NAS   PTCLDY    85  75  72 E9        30.08F
KEY WEST INTL  PTCLDY    86  75  69 E5        30.09F HX  95

STATION/POSITION SKY/WX   TEMP    WIND        PRES    WAVE   SWELL
                          AIR SEA DIR/SP/G            HT/PER HT/PER
                          (F)     (DEG/KT/KT) (MB)    (FT/S) (FT/S)
VENICE                     78 89   60/  4/  5 1019.2F
NAPLES                     80      80/  3/  3 1020.0F
DRY TORTUGAS               86      90/  9/ 10 1018.2F
NW FL BAY                  85     210/  4/  8 1020.0R
SAND KEY                   85     120/  9/ 12 1018.7F
SOMBRERO KEY               85      70/  6/  7 1019.4F
LONG KEY                   86 91   90/  5/  6 1020.2S
MOLASSES REEF              85 88   60/  3/  4 1019.0F

$$
FLZ067-068-071>074-168-172>174-220600-
SOUTHEAST FLORIDA

CITY           SKY/WX    TMP DP  RH WIND       PRES   REMARKS
W PALM BEACH   PTCLDY    84  75  74 SE5       30.10F
FT LAUDER-EXEC PTCLDY    84  77  79 SE3       30.10F
FT LAUDERDALE  PTCLDY    85  75  72 E5        30.10F
POMPANO BEACH    N/A     85  74  69 SE5       30.11S
PEMBROKE PINES CLEAR     83  76  79 CALM      30.12S
OPA LOCKA      CLEAR     85  76  74 NE3       30.11F
MIAMI          PTCLDY    85  75  72 E5        30.10F
WEST KENDALL   CLEAR     80  76  87 CALM      30.10F
HOMESTEAD      CLEAR     82  75  80 CALM      30.10F

STATION/POSITION SKY/WX   TEMP    WIND        PRES    WAVE   SWELL
                          AIR SEA DIR/SP/G            HT/PER HT/PER
                          (F)     (DEG/KT/KT) (MB)    (FT/S) (FT/S)
PORT EVERGLADES            85     100/  2/  4 1019.3
VIRGINIA KEY               86 90  130/  3/  5   N/A
LAKE WORTH                 85 88  130/  5/  7 1019.2F
FOWEY ROCKS                86 87  110/  6/  7 1019.4F
SETTLEMENT POINT           83     150/  5/  6 1020.2F

$$





U.S. Dept. of Commerce
NOAA National Weather Service
1325 East West Highway
Silver Spring, MD 20910
E-mail: w-nws.webmaster@noaa.gov
Page last modified: May 16, 2007
NATIONAL WEATHER SERVICE: for Safety, for Work, for Fun - FOR LIFE